Location: Lombard
(41.8800°N, 88.0080°W)
Time: 23:47:24
(UTC-05:00)

Transit 2A - Pass Details

Date: 07 February 2023
Orbit: 591 x 964 km, 66.7° (Epoch: 20 March)

Event Time Altitude Azimuth Distance (km) Brightness Sun altitude
Rises 01:47:34 0° 322° (NW) 3,549 - -55.6°
Reaches altitude 10° 01:50:12 10° 315° (NW) 2,641 - -55.3°
Maximum altitude 01:55:54 39° 249° (WSW) 1,404 - -54.5°
Drops below altitude 10° 02:01:42 10° 183° (S) 2,690 - -53.6°
Sets 02:04:25 0° 176° (S) 3,622 - -53.2°
